[[{"header":{"parameterUnit":"m.s-1","parameterCategory":1,"la1":30.2991,"la2":30.254,"lo1":-89.0895,"lo2":-89.0444,"dy":0.0017,"dx":0.0017,"nx":28,"ny":28,"refTime":"2024-06-06T03:00:00:Z","depth":0,"parameterNumber":2,"parameterNumberName":"U-component_of_WINDS"},"data":[0,0,0,0,0,0,0,0,0,0,0,0,0,0,0,0,0,0,0,0,0,0,0,0,0,0,0,0,0,0,0,0,0,0,0,0,0,0,0,0,0,0,0,0,0,0,0,0,0,0,0,0,0,0,0,0,0,0,-0.9365,-0.9365,0,-0.9363,-0.9363,-0.9363,-0.9307,-0.9305,-0.9304,-0.9302,-0.9303,-0.9305,-0.9306,0,0,0,0,0,0,0,0,0,0,0,0,0,-0.932,-0.9321,-0.9365,-0.9365,-0.9364,-0.9363,-0.9363,-0.9363,-0.9307,-0.9305,-0.9303,-0.9302,-0.9303,-0.9304,-0.9306,0,0,0,0,0,0,0,0,0,0,0,0,0,-0.9331,-0.9322,-0.9365,-0.9336,-0.9334,-0.9363,-0.9363,-0.9363,-0.9307,-0.9305,-0.9303,-0.9301,-0.9302,-0.9304,-0.9306,-0.9364,0,0,-0.9313,-0.9314,0,0,0,0,0,0,0,0,-0.9331,-0.9333,-0.934,-0.9338,-0.9335,-0.9333,-0.9348,-0.9363,-0.9308,-0.9317,-0.9302,-0.93,-0.9315,-0.9316,-0.9321,-0.9364,-0.9364,-0.9313,-0.9314,-0.9315,-0.9316,0,0,0,0,0,0,0,-0.933,-0.9333,-0.9364,-0.9341,-0.9338,-0.9324,-0.9323,-0.9351,-0.9329,-0.9316,-0.9312,-0.9313,-0.9313,-0.9319,-0.932,-0.9364,-0.9313,-0.9315,-0.9316,-0.9317,-0.9454,-0.9456,0,0,0,0,0,0,-0.9333,-0.9333,-0.9364,-0.9364,-0.9328,-0.9327,-0.9326,-0.9336,-0.9328,-0.9325,-0.9315,-0.931,-0.9316,-0.9318,-0.932,-0.9387,-0.9315,-0.9317,-0.9318,-0.9451,-0.9454,-0.9457,0,0,0,0,0,0,-0.9332,-0.9336,-0.9364,-0.9347,-0.935,-0.933,-0.9342,-0.9337,-0.9342,-0.9327,-0.9323,-0.9324,-0.9315,-0.9317,-0.9353,-0.9386,-0.9318,-0.932,-0.9449,-0.9452,-0.9456,-0.952,0,0,0,0,0,0,-0.9331,-0.9336,-0.9357,-0.9348,-0.9351,-0.9397,-0.9344,-0.9339,-0.9346,-0.934,-0.9335,-0.9332,-0.9313,-0.935,-0.9355,-0.9388,-0.9322,-0.9446,-0.945,-0.9454,-0.9515,-0.9526,-0.9535,0,0,0,0,0,-0.933,-0.9376,-0.9359,-0.9363,-0.9377,-0.9399,-0.94,-0.9377,-0.9349,-0.937,-0.936,-0.9332,-0.9381,-0.9354,-0.9359,-0.9393,-0.9443,-0.9449,-0.9454,-0.9511,-0.9524,-0.9535,0,0,0,0,0,0,-0.9391,-0.9374,-0.9355,-0.94,-0.9401,-0.9389,-0.9415,-0.9392,-0.9402,-0.9396,-0.9367,-0.9366,-0.9407,-0.9403,-0.9374,-0.9448,-0.9407,-0.9414,-0.9449,-0.9461,-0.9471,-0.9471,-0.9323,0,0,0,0,0,-0.9409,-0.9428,-0.9413,-0.9454,-0.9455,-0.9435,-0.9444,-0.9426,-0.9427,-0.9427,-0.942,-0.9422,-0.9438,-0.9449,-0.9463,-0.9514,-0.9513,-0.954,-0.955,-0.9558,-0.9564,-0.9591,-0.9603,-0.9474,-0.9474,-0.9474,0,0,-0.9448,-0.9441,-0.9455,-0.9466,-0.9465,-0.9485,-0.9436,-0.946,-0.9475,-0.9431,-0.9464,-0.9459,-0.946,-0.9504,-0.9523,-0.9502,-0.9599,-0.9565,-0.9571,-0.9573,-0.9598,-0.961,-0.9621,-0.9478,-0.9477,-0.9477,0,0,-0.9529,-0.9526,-0.9559,-0.9559,-0.9558,-0.9544,-0.9553,-0.9544,-0.9539,-0.9572,-0.9539,-0.9557,-0.9585,-0.9587,-0.9592,-0.9673,-0.9648,-0.9679,-0.973,-0.9757,-0.9767,-0.9776,-0.9806,-0.9817,-0.9685,-0.9685,-0.9685,0,-0.9578,-0.9607,-0.958,-0.9606,-0.9612,-0.9572,-0.9606,-0.9608,-0.9611,-0.9617,-0.9593,-0.9628,-0.9625,-0.9669,-0.9689,-0.9694,-0.9703,-0.9679,-0.9768,-0.9776,-0.9784,-0.9812,-0.9823,-0.9689,-0.9688,-0.9688,-0.9688,0,-0.9667,-0.9687,-0.9715,-0.9719,-0.9728,-0.9758,-0.9736,-0.9749,-0.973,-0.9719,-0.9754,-0.9749,-0.9762,-0.9771,-0.9753,-0.9812,-0.98,-0.9772,-0.9731,-0.9801,-0.9826,-0.9837,-0.9694,-0.9693,-0.9692,-0.9691,0,0,-0.9786,-0.9775,-0.9785,-0.9787,-0.9782,-0.9798,-0.9827,-0.9838,-0.985,-0.9854,-0.9877,-0.9902,-0.9877,-0.9882,-0.9864,-0.9888,-0.9953,-0.9857,-0.9857,-0.9876,-1.0019,-1.004,-1.0053,-0.9936,-0.9938,-0.994,-1.0019,0,-0.9865,-0.9912,-0.9889,-0.994,-0.9959,-0.9921,-0.9946,-0.9947,-0.9937,-0.9953,-0.9943,-0.9961,-0.9926,-0.9929,-0.995,-0.9941,-0.9982,-0.9935,-0.9959,-0.996,-0.996,-1.0066,-1.0089,-1.0164,-1.0029,-1.0031,-1.0032,0,-0.9963,-0.9971,-1.0023,-1.0015,-1.0022,-1.0045,-1.0054,-1.0069,-1.0069,-1.006,-1.0066,-1.0043,-1.0071,-1.003,-1.0068,-1.0037,-1.0045,-1.0042,-1.0045,-1.0046,-1.0001,-1.0072,-1.0187,-1.0199,-1.0048,-1.0047,-1.0045,0,-1.0046,-1.0069,-1.0104,-1.0106,-1.0097,-1.0114,-1.0112,-1.0109,-1.0118,-1.0126,-1.0131,-1.0142,-1.0149,-1.0158,-1.0139,-1.011,-1.0181,-1.0137,-1.0175,-1.0176,-1.0192,-1.0191,-1.0311,-1.0197,-1.0197,-1.0196,-1.0196,0,-1.0137,-1.0171,-1.0141,-1.0162,-1.0199,-1.0172,-1.0209,-1.0203,-1.0201,-1.0221,-1.0189,-1.0208,-1.0181,-1.0198,-1.0183,-1.0218,-1.0221,-1.0215,-1.0211,-1.0218,-1.0219,-1.0224,-1.0218,-1.0199,-1.0199,-1.0198,-1.0198,0,-1.0236,-1.0217,-1.0252,-1.0241,-1.0239,-1.0267,-1.0258,-1.0277,-1.0265,-1.0291,-1.0295,-1.0277,-1.0296,-1.0277,-1.0294,-1.0284,-1.0331,-1.0318,-1.0331,-1.0327,-1.0366,-1.0363,-1.0494,-1.051,-1.0385,-1.0386,-1.0387,0,-1.0295,-1.032,-1.0312,-1.0322,-1.0321,-1.0339,-1.0347,-1.0322,-1.0332,-1.0334,-1.0353,-1.0369,-1.038,-1.0411,-1.04,-1.0413,-1.0401,-1.0446,-1.0403,-1.041,-1.0402,-1.0401,-1.0404,-1.0455,-1.0457,-1.0458,-1.0459,0,-1.0403,-1.0392,-1.0405,-1.0415,-1.0425,-1.0432,-1.0436,-1.0447,-1.042,-1.0433,-1.0451,-1.046,-1.0477,-1.0493,-1.0503,-1.0501,-1.0476,-1.0472,-1.0482,-1.049,-1.0496,-1.0494,-1.0355,-1.047,-1.0468,-1.0468,-1.0467,-1.0467,-1.0484,-1.0504,-1.0502,-1.0517,-1.0517,-1.0522,-1.054,-1.053,-1.0544,-1.0556,-1.054,-1.0563,-1.0562,-1.0573,-1.0573,-1.0591,-1.0572,-1.0586,-1.0589,-1.0593,-1.0599,-1.0493,-1.0593,-1.0592,-1.0592,-1.0592,-1.0592,0,-1.059,-1.0586,-1.0601,-1.0607,-1.062,-1.0594,-1.0597,-1.061,-1.0629,-1.0631,-1.0642,-1.0663,-1.0678,-1.0668,-1.0681,-1.0697,-1.0686,-1.0702,-1.0701,-1.0701,-1.0615,-1.0606,-1.0711,-1.0711,-1.0711,-1.0711,-1.0711,-1.071,-1.0647,-1.068,-1.067,-1.0703,-1.0699,-1.072,-1.0724,-1.0729,-1.073,-1.0754,-1.0766,-1.0759,-1.0756,-1.0769,-1.0782,-1.0779,-1.0786,-1.0805,-1.0798,-1.0718,-1.0707,-1.0696,-1.0687,-1.0807,-1.0807,-1.0882,-1.0883,-1.0884]},{"header":{"parameterUnit":"m.s-1","parameterCategory":1,"la1":30.2991,"la2":30.254,"lo1":-89.0895,"lo2":-89.0444,"dy":0.0017,"dx":0.0017,"nx":28,"ny":28,"refTime":"2024-06-06T03:00:00:Z","depth":0,"parameterNumber":3,"parameterNumberName":"V-component_of_WINDS"},"data":[0,0,0,0,0,0,0,0,0,0,0,0,0,0,0,0,0,0,0,0,0,0,0,0,0,0,0,0,0,0,0,0,0,0,0,0,0,0,0,0,0,0,0,0,0,0,0,0,0,0,0,0,0,0,0,0,0,0,-0.2279,-0.2279,0,-0.2277,-0.2277,-0.2277,-0.2249,-0.2248,-0.2247,-0.2247,-0.2246,-0.2246,-0.2247,0,0,0,0,0,0,0,0,0,0,0,0,0,-0.2259,-0.2259,-0.2279,-0.2279,-0.2279,-0.2277,-0.2277,-0.2277,-0.2249,-0.2248,-0.2247,-0.2246,-0.2245,-0.2246,-0.2247,0,0,0,0,0,0,0,0,0,0,0,0,0,-0.2263,-0.226,-0.2279,-0.2265,-0.2263,-0.2277,-0.2277,-0.2277,-0.2249,-0.2248,-0.2247,-0.2246,-0.2245,-0.2246,-0.2247,-0.2274,0,0,-0.225,-0.225,0,0,0,0,0,0,0,0,-0.2263,-0.2264,-0.2267,-0.2266,-0.2264,-0.2262,-0.2269,-0.2276,-0.2249,-0.2255,-0.2247,-0.2245,-0.2252,-0.2252,-0.2254,-0.2274,-0.2274,-0.225,-0.2251,-0.2251,-0.2251,0,0,0,0,0,0,0,-0.2263,-0.2264,-0.2278,-0.2267,-0.2265,-0.2259,-0.2258,-0.2271,-0.2259,-0.2254,-0.2252,-0.2252,-0.2251,-0.2253,-0.2254,-0.2274,-0.225,-0.2251,-0.2251,-0.2252,-0.2316,-0.2318,0,0,0,0,0,0,-0.2264,-0.2264,-0.2278,-0.2278,-0.2261,-0.226,-0.2259,-0.2264,-0.2259,-0.2257,-0.2253,-0.2251,-0.2252,-0.2253,-0.2254,-0.2286,-0.2251,-0.2252,-0.2252,-0.2315,-0.2317,-0.2318,0,0,0,0,0,0,-0.2264,-0.2266,-0.2278,-0.2271,-0.2272,-0.2261,-0.2267,-0.2264,-0.2267,-0.2258,-0.2256,-0.2258,-0.2252,-0.2253,-0.2269,-0.2285,-0.2252,-0.2253,-0.2314,-0.2316,-0.2317,-0.2349,0,0,0,0,0,0,-0.2264,-0.2266,-0.2276,-0.2271,-0.2272,-0.2294,-0.2268,-0.2265,-0.2268,-0.2266,-0.2262,-0.226,-0.2251,-0.2268,-0.227,-0.2286,-0.2254,-0.2313,-0.2315,-0.2317,-0.2347,-0.2352,-0.2356,0,0,0,0,0,-0.2263,-0.2286,-0.2277,-0.2279,-0.2285,-0.2295,-0.2296,-0.2284,-0.227,-0.228,-0.2275,-0.2261,-0.2283,-0.227,-0.2272,-0.2288,-0.2311,-0.2314,-0.2317,-0.2345,-0.2351,-0.2356,0,0,0,0,0,0,-0.2294,-0.2285,-0.2275,-0.2297,-0.2297,-0.229,-0.2303,-0.2291,-0.2295,-0.2292,-0.2278,-0.2277,-0.2296,-0.2294,-0.228,-0.2315,-0.2295,-0.2298,-0.2315,-0.2321,-0.2326,-0.2326,-0.2255,0,0,0,0,0,-0.2303,-0.2312,-0.2304,-0.2323,-0.2324,-0.2313,-0.2317,-0.2308,-0.2308,-0.2308,-0.2304,-0.2304,-0.2311,-0.2316,-0.2322,-0.2346,-0.2345,-0.2358,-0.2363,-0.2367,-0.237,-0.2382,-0.2388,-0.2326,-0.2326,-0.2326,0,0,-0.2322,-0.2319,-0.2325,-0.233,-0.2328,-0.2338,-0.2314,-0.2325,-0.2332,-0.231,-0.2325,-0.2322,-0.2321,-0.2342,-0.2351,-0.2341,-0.2387,-0.237,-0.2374,-0.2374,-0.2386,-0.2392,-0.2397,-0.2328,-0.2328,-0.2328,0,0,-0.2362,-0.236,-0.2377,-0.2376,-0.2374,-0.2367,-0.2371,-0.2366,-0.2363,-0.2378,-0.2362,-0.237,-0.2382,-0.2382,-0.2384,-0.2423,-0.2411,-0.2426,-0.2451,-0.2463,-0.2468,-0.2472,-0.2486,-0.2491,-0.2429,-0.2429,-0.2429,0,-0.2387,-0.24,-0.2386,-0.2399,-0.2401,-0.2381,-0.2397,-0.2397,-0.2398,-0.24,-0.2388,-0.2403,-0.2402,-0.2422,-0.2431,-0.2433,-0.2437,-0.2426,-0.2468,-0.2472,-0.2476,-0.2489,-0.2495,-0.2431,-0.243,-0.243,-0.243,0,-0.243,-0.2439,-0.2453,-0.2453,-0.2457,-0.2472,-0.246,-0.2466,-0.2456,-0.245,-0.2466,-0.2462,-0.2467,-0.2471,-0.2462,-0.249,-0.2484,-0.2471,-0.245,-0.2484,-0.2496,-0.2501,-0.2433,-0.2433,-0.2432,-0.2432,0,0,-0.249,-0.2482,-0.2487,-0.2487,-0.2484,-0.2491,-0.2504,-0.2508,-0.2513,-0.2515,-0.2525,-0.2536,-0.2523,-0.2525,-0.2516,-0.2527,-0.2558,-0.2512,-0.2512,-0.2521,-0.2588,-0.2599,-0.2605,-0.2549,-0.255,-0.2551,-0.2588,0,-0.2528,-0.255,-0.2538,-0.2561,-0.257,-0.255,-0.2562,-0.2561,-0.2556,-0.2562,-0.2556,-0.2564,-0.2547,-0.2548,-0.2558,-0.2552,-0.2571,-0.2549,-0.2559,-0.256,-0.256,-0.2611,-0.2622,-0.2658,-0.2593,-0.2594,-0.2594,0,-0.2576,-0.2579,-0.2603,-0.2597,-0.2601,-0.2611,-0.2614,-0.262,-0.2619,-0.2614,-0.2616,-0.2604,-0.2617,-0.2596,-0.2613,-0.2599,-0.2602,-0.26,-0.2601,-0.2601,-0.2579,-0.2613,-0.2669,-0.2674,-0.2602,-0.2601,-0.2601,0,-0.2617,-0.2627,-0.2642,-0.2643,-0.2637,-0.2645,-0.2643,-0.264,-0.2643,-0.2646,-0.2648,-0.2652,-0.2654,-0.2658,-0.2647,-0.2633,-0.2666,-0.2645,-0.2662,-0.2662,-0.267,-0.267,-0.2727,-0.2672,-0.2672,-0.2672,-0.2672,0,-0.2662,-0.2677,-0.2661,-0.267,-0.2687,-0.2673,-0.269,-0.2686,-0.2684,-0.2692,-0.2676,-0.2684,-0.267,-0.2677,-0.2668,-0.2684,-0.2685,-0.2681,-0.2679,-0.2683,-0.2683,-0.2685,-0.2682,-0.2673,-0.2673,-0.2673,-0.2672,0,-0.271,-0.27,-0.2716,-0.2708,-0.2707,-0.272,-0.2713,-0.2722,-0.2715,-0.2726,-0.2728,-0.2718,-0.2725,-0.2715,-0.2721,-0.2715,-0.2736,-0.273,-0.2737,-0.2735,-0.2753,-0.2752,-0.2814,-0.2821,-0.2761,-0.2762,-0.2762,0,-0.274,-0.2751,-0.2745,-0.2749,-0.2748,-0.2755,-0.2758,-0.2744,-0.2748,-0.2747,-0.2756,-0.2762,-0.2766,-0.2778,-0.2771,-0.2776,-0.277,-0.2791,-0.2771,-0.2774,-0.277,-0.277,-0.2771,-0.2796,-0.2796,-0.2797,-0.2797,0,-0.2792,-0.2786,-0.2791,-0.2794,-0.2798,-0.28,-0.28,-0.2805,-0.279,-0.2796,-0.2803,-0.2806,-0.2812,-0.2818,-0.2821,-0.2819,-0.2806,-0.2804,-0.2808,-0.2812,-0.2816,-0.2814,-0.2748,-0.2803,-0.2802,-0.2802,-0.2801,-0.2801,-0.2832,-0.2841,-0.2838,-0.2844,-0.2842,-0.2843,-0.2851,-0.2845,-0.285,-0.2854,-0.2845,-0.2855,-0.2852,-0.2855,-0.2854,-0.2861,-0.2852,-0.2858,-0.286,-0.2861,-0.2864,-0.2814,-0.2862,-0.2861,-0.2861,-0.2861,-0.2861,0,-0.2883,-0.288,-0.2886,-0.2887,-0.2891,-0.2878,-0.2878,-0.2883,-0.2891,-0.289,-0.2894,-0.2902,-0.2907,-0.2901,-0.2905,-0.2912,-0.2906,-0.2914,-0.2913,-0.2913,-0.2872,-0.2868,-0.2918,-0.2918,-0.2918,-0.2918,-0.2918,-0.2918,-0.2911,-0.2925,-0.2919,-0.2933,-0.2929,-0.2938,-0.2939,-0.294,-0.2939,-0.2948,-0.2952,-0.2948,-0.2944,-0.2948,-0.2953,-0.2951,-0.2953,-0.2963,-0.2959,-0.2921,-0.2916,-0.291,-0.2906,-0.2963,-0.2964,-0.2998,-0.2999,-0.2999]}]]